RH
78 74 66 54 53 54 74 96 100 92 78 81 98 100 100 95 67 76 82 57 66 50 28 26 21 20 18 16 14 14 12 12 13 17 46 90 100 100 100 100 100 99 97 97
69 58 50 50 46 49 47 49 78 90 75 89 96 100 100 95 96 94 74 76 41 31 27 22 22 18 15 13 14 16 16 14 12 14 26 85 91 100 100 100 100 100 100 100
58 48 44 30 25 20 27 50 74 82 81 100 100 100 100 94 95 91 97 55 40 30 25 25 18 14 11 11 11 10 10 11 10 13 23 79 91 100 100 100 100 100 100 100
51 39 31 29 17 22 25 30 76 80 89 100 100 100 100 94 94 93 92 70 42 28 27 19 14 10 10 10 9 10 11 8 8 12 19 64 92 100 100 100 100 100 100 100
27 18 16 11 14 23 36 58 76 83 92 100 100 100 100 96 96 91 82 60 34 29 20 13 10 10 10 13 18 20 19 10 8 12 19 72 96 100 100 100 100 100 100 100
15 14 12 13 19 37 56 50 54 59 84 98 100 93 100 100 94 83 48 34 24 17 13 11 10 10 19 24 25 24 25 13 9 12 25 85 97 100 100 100 100 100 100 100
14 13 12 13 30 35 74 56 34 68 94 94 95 100 100 99 97 78 41 27 20 13 11 11 10 16 23 24 27 29 32 12 9 13 33 92 100 100 100 100 100 100 99 78
10 12 14 14 38 75 78 48 54 93 94 92 100 100 100 100 81 38 27 18 14 13 12 12 15 25 23 27 32 35 30 11 10 14 45 96 100 100 100 100 100 100 100 87
11 13 17 40 46 78 58 68 74 90 100 97 100 100 100 80 36 25 18 14 13 12 12 22 28 31 20 23 29 34 25 10 11 15 56 100 100 100 100 100 100 100 99 89
12 17 21 24 44 51 52 72 92 100 100 100 100 100 67 34 24 17 15 14 12 13 22 38 41 35 26 25 30 32 23 11 11 16 89 100 100 100 100 100 100 96 93 97
13 19 22 33 42 54 77 93 100 100 99 97 94 66 34 24 17 15 14 12 15 25 30 35 35 33 28 25 29 31 25 11 13 32 100 100 100 100 100 100 95 97 100 92
12 28 36 35 42 66 96 100 100 100 100 99 69 34 24 19 16 13 11 15 31 31 26 28 30 26 26 24 28 32 28 13 15 58 100 100 100 100 100 100 94 100 100 94
24 27 34 50 78 100 100 100 100 97 96 58 34 24 20 16 13 12 12 28 34 31 40 49 39 32 31 29 26 34 32 17 17 83 100 100 100 100 100 100 100 100 100 100
25 29 47 68 94 100 100 100 100 97 64 36 25 20 17 14 13 12 21 40 38 48 62 57 46 35 30 26 27 38 32 19 20 95 100 100 100 100 100 100 100 100 100 100
48 64 83 92 100 100 100 100 100 67 38 29 22 18 15 15 14 16 43 37 42 65 68 62 69 75 63 34 38 44 36 22 25 95 100 100 100 100 99 100 100 100 100 100
74 90 95 98 100 100 100 100 66 38 28 23 20 17 16 16 13 23 33 32 44 72 75 78 92 100 100 85 70 50 38 26 29 98 100 100 100 100 100 98 100 100 100 100
89 97 100 100 100 100 96 62 35 27 24 22 17 17 17 14 14 43 38 34 32 38 62 78 91 100 99 80 73 61 45 33 32 100 100 100 100 100 100 94 100 100 100 100
93 100 100 100 100 85 51 35 28 25 22 20 19 19 16 14 30 66 67 54 47 28 45 72 79 95 100 99 93 74 50 42 38 100 100 100 100 100 100 100 100 100 100 100
99 99 99 99 65 40 32 29 25 22 20 20 22 19 13 24 76 81 66 64 66 51 41 52 80 78 91 100 91 77 49 44 44 100 100 100 100 100 100 100 100 100 100 100
100 99 76 43 33 29 26 21 18 20 22 24 20 13 14 60 94 90 63 53 85 90 72 48 65 85 85 90 99 78 49 46 65 100 100 100 100 100 100 100 100 100 100 99
78 43 32 27 21 18 18 19 22 24 23 20 14 11 64 93 93 99 88 60 51 91 97 67 64 92 94 92 95 90 58 49 91 100 100 100 100 100 100 100 100 100 100 100
29 20 16 16 17 17 19 20 20 19 17 14 11 22 98 98 90 75 80 85 73 66 87 83 66 94 100 96 90 92 63 54 100 100 100 100 100 100 100 100 100 100 100 100
16 15 14 15 17 19 20 18 15 13 11 10 13 56 99 100 100 97 86 76 70 75 82 72 70 83 100 100 99 91 62 68 100 100 100 100 100 100 100 100 100 100 100 100
14 14 16 17 18 17 15 12 10 10 11 15 46 100 100 98 95 100 100 92 81 75 98 91 75 79 100 100 97 84 65 82 100 100 100 100 100 100 100 100 100 100 100 100
16 16 17 16 14 11 10 10 12 14 25 43 100 100 100 100 100 97 96 93 90 90 100 100 92 89 100 100 90 74 66 90 100 100 100 100 100 96 100 100 100 100 100 100
16 16 13 11 10 12 18 25 35 47 56 98 100 100 100 100 100 100 100 100 98 98 96 100 100 100 100 98 92 76 71 86 100 100 100 100 100 98 100 100 100 100 100 100
13 11 11 13 24 44 67 88 86 80 93 100 100 100 100 100 100 100 100 100 100 100 100 100 100 100 100 100 99 92 79 97 100 100 100 100 98 95 100 100 100 100 100 100
Wind_Speed
53 56 54 46 43 43 49 54 52 50 48 46 46 46 42 41 38 38 39 38 39 39 40 43 45 45 45 45 43 42 42 40 37 35 33 31 25 25 25 29 30 29 29 31
53 52 53 51 47 47 50 52 53 53 49 43 43 42 42 42 38 39 40 40 40 41 43 44 46 48 48 47 46 45 44 40 37 34 32 29 29 24 22 24 25 27 28 29
58 57 54 50 48 49 51 52 53 50 49 45 41 40 43 43 41 42 40 40 42 43 45 46 47 49 50 50 50 48 45 41 36 33 30 27 28 22 21 23 24 27 25 27
60 57 56 53 49 50 51 50 48 48 47 44 39 35 41 45 45 42 40 42 44 45 48 50 52 52 52 53 47 40 38 35 34 32 28 27 26 22 21 22 22 21 24 28
59 57 55 51 52 49 48 46 48 48 46 45 37 37 41 45 44 44 44 45 45 47 49 51 53 51 49 38 31 31 32 31 32 31 25 25 25 20 21 22 24 21 23 25
58 57 56 53 49 50 47 46 49 48 44 42 39 41 40 40 41 41 43 45 46 47 49 51 51 47 35 33 33 32 32 29 30 29 24 24 23 18 17 20 22 20 23 23
57 59 55 53 51 48 47 50 49 46 42 40 45 46 43 41 40 41 43 45 47 49 50 51 48 36 31 32 32 32 35 27 28 25 24 24 22 17 18 18 21 19 21 22
56 56 56 53 50 47 50 53 49 45 45 45 44 42 41 39 39 42 44 46 48 49 50 47 40 31 27 28 30 32 31 24 26 24 24 23 20 18 19 18 18 18 18 20
54 54 54 52 49 48 52 50 48 45 44 44 41 39 38 38 40 43 45 47 49 49 46 40 35 32 26 30 30 29 24 23 24 23 23 21 17 18 20 19 18 17 17 18
55 54 54 52 50 50 49 47 44 43 44 40 37 36 35 39 41 43 46 47 49 46 40 35 34 32 28 29 28 25 20 20 22 23 22 18 16 18 23 19 17 15 15 16
55 55 53 51 50 48 44 42 42 44 39 36 35 35 37 40 41 44 45 47 45 39 36 34 31 31 29 27 24 21 18 18 22 23 23 17 17 25 21 19 15 11 13 14
54 51 51 49 46 43 41 41 41 37 34 35 35 37 38 40 42 44 45 42 37 36 36 35 32 30 27 23 22 19 16 18 24 26 24 17 22 25 21 17 13 10 13 13
51 49 47 46 44 42 42 40 36 33 32 33 37 37 38 40 43 45 43 36 36 36 33 31 30 25 21 20 20 17 14 18 25 29 26 20 25 27 23 18 14 17 18 21
49 47 44 43 42 41 38 34 32 32 34 36 36 38 40 43 44 43 36 33 33 31 30 33 33 30 21 19 18 17 14 19 26 31 28 22 26 30 25 20 16 19 20 19
45 43 40 39 38 35 32 30 32 33 36 36 37 40 44 44 43 37 30 28 29 28 29 32 29 25 16 17 17 16 15 19 27 31 28 25 28 32 28 24 19 19 22 20
40 38 38 37 33 31 30 31 33 35 35 36 40 43 43 43 41 33 25 25 26 26 28 26 22 19 12 13 15 15 14 19 27 30 30 27 29 33 31 26 23 19 19 20
38 37 35 31 29 30 31 33 35 35 37 41 42 43 42 41 37 30 25 25 25 24 24 21 17 16 9 9 12 13 13 18 27 30 31 28 28 33 32 28 26 23 18 22
35 31 29 28 30 32 34 35 36 38 41 43 43 42 41 38 32 28 25 26 25 23 21 18 14 13 11 8 9 11 12 17 26 29 29 27 27 30 35 30 27 25 22 22
29 28 29 30 32 34 35 38 41 43 44 43 42 41 39 32 28 27 23 24 24 19 17 17 14 14 12 10 9 10 11 16 25 28 27 25 25 29 33 33 30 28 25 24
29 30 32 34 35 37 41 43 44 45 44 42 41 39 34 28 25 24 23 21 20 19 18 16 14 14 15 13 11 10 10 15 25 27 24 22 22 27 30 34 32 30 29 28
31 33 34 37 41 43 44 45 45 44 43 41 38 33 26 25 23 22 21 20 17 17 17 17 16 14 14 14 12 10 9 15 25 26 23 21 20 23 25 28 33 34 33 29
34 37 40 43 46 47 48 47 45 44 41 39 34 26 22 22 22 19 16 17 19 17 17 17 16 14 12 11 11 10 8 13 26 25 23 20 20 20 23 25 29 32 31 30
40 44 47 49 50 50 48 46 43 41 38 33 28 22 19 20 20 19 19 21 22 20 18 15 14 13 12 11 10 9 8 12 26 24 22 20 20 19 20 23 27 29 30 29
47 49 51 51 50 48 45 42 39 35 31 26 20 18 20 19 17 15 16 19 17 17 13 11 12 11 12 11 11 11 9 12 25 25 22 22 21 21 22 25 26 28 29 29
53 53 52 50 46 43 40 36 32 27 23 19 15 16 17 17 16 16 17 17 14 12 8 11 12 11 13 11 10 11 11 13 25 25 23 24 26 25 21 20 21 21 21 21
53 50 45 42 38 35 31 27 23 20 17 14 15 16 14 12 12 14 12 12 10 10 10 10 8 6 10 12 10 12 12 15 23 26 26 28 29 27 22 19 19 19 18 17
43 39 35 33 30 26 22 20 19 17 14 14 14 13 10 9 9 9 9 8 9 9 7 5 5 6 6 9 11 13 13 17 23 26 27 31 33 30 25 21 18 17 16 16
Wind_Direction
325 323 325 330 322 310 308 311 316 320 317 317 318 310 299 292 304 306 301 298 297 297 298 302 303 304 304 302 297 288 284 284 283 278 270 262 263 263 256 246 241 242 245 247
325 323 326 328 321 314 310 309 310 314 315 315 313 306 296 300 303 296 295 296 295 297 302 304 307 308 307 301 293 288 283 278 275 274 267 259 257 260 255 245 241 245 247 242
323 325 327 326 320 312 310 309 311 314 315 315 312 307 300 301 298 294 296 296 298 300 304 309 309 308 307 302 299 292 283 275 268 265 262 256 249 251 247 237 237 242 240 243
325 327 324 323 316 312 310 312 315 314 315 314 308 305 302 303 299 300 299 297 300 306 311 313 312 312 309 304 300 291 283 270 258 255 253 249 244 247 242 236 240 239 238 239
322 320 320 318 315 313 312 314 313 314 314 311 305 309 301 301 301 303 303 304 307 311 314 313 313 312 308 302 297 298 287 268 246 245 243 241 236 243 242 226 237 245 241 235
318 315 318 317 314 310 309 312 313 312 310 306 304 307 302 298 297 299 302 308 313 315 315 314 313 311 304 298 298 301 297 268 238 237 231 231 228 239 231 224 223 244 235 225
315 313 314 311 309 310 311 312 310 311 309 307 307 305 304 302 300 303 309 313 315 315 314 313 312 307 301 302 300 301 303 259 233 229 223 223 223 234 219 219 222 244 226 226
312 309 310 309 309 309 308 309 310 308 306 308 306 305 304 305 307 310 313 316 316 315 314 312 310 305 301 310 307 305 304 247 230 220 217 217 220 230 215 215 230 227 231 232
306 307 305 306 308 308 308 309 308 307 307 308 306 306 306 307 310 314 316 316 316 315 314 310 307 304 293 301 306 307 298 240 227 214 212 210 223 218 209 210 218 228 238 236
304 304 304 307 308 307 307 308 307 305 307 306 307 307 309 312 315 317 316 316 315 314 312 309 308 304 297 298 298 301 291 239 224 210 203 201 224 207 189 202 217 230 231 234
305 303 305 307 306 306 307 306 305 306 306 306 307 311 315 316 317 317 317 316 314 313 312 312 309 303 299 297 289 293 285 235 218 204 192 198 210 180 185 200 211 218 225 220
304 304 304 306 306 307 306 306 306 304 306 308 313 316 318 318 318 317 318 316 314 316 314 312 308 300 293 281 276 282 281 231 212 200 184 193 191 179 181 191 194 199 177 158
303 304 306 306 307 306 306 306 304 307 308 310 314 318 319 318 318 319 318 315 316 318 316 315 312 300 288 275 271 266 270 227 207 199 189 193 189 183 182 187 185 180 166 156
304 306 307 306 306 305 304 303 306 307 311 314 318 319 319 319 321 320 316 315 318 320 321 322 317 307 282 266 261 253 259 222 205 201 191 193 191 187 182 186 186 183 181 175
306 307 306 305 303 301 302 304 306 310 313 316 319 320 321 322 323 319 313 317 321 320 323 325 323 319 282 245 239 240 250 220 203 201 193 195 193 192 190 190 195 189 191 195
309 306 304 303 301 302 303 306 309 311 316 319 321 321 321 321 321 316 312 319 323 320 323 326 326 327 303 242 229 235 245 217 202 198 193 196 199 198 198 199 199 198 193 195
305 302 302 302 304 304 307 310 312 315 318 319 319 320 321 319 318 312 308 315 322 322 320 321 322 332 313 268 245 238 246 218 203 194 192 197 202 201 201 202 198 199 192 194
302 302 303 305 305 308 310 311 314 316 317 317 318 319 319 316 315 310 306 309 316 324 320 313 301 315 325 298 266 250 251 220 204 193 194 198 203 204 204 200 197 198 194 198
302 304 305 305 307 309 311 313 315 316 317 317 317 318 316 315 312 311 306 312 310 307 313 311 293 281 295 306 276 260 256 218 203 191 194 197 200 201 205 203 200 201 198 207
303 303 305 307 310 311 311 313 315 316 316 316 316 313 311 313 312 315 316 316 301 290 294 301 295 274 271 280 282 261 253 216 201 192 194 197 197 195 198 200 204 200 203 212
303 305 307 308 309 310 312 314 314 314 314 313 311 309 303 306 308 313 313 315 317 298 293 296 290 279 268 270 277 264 247 211 198 194 195 197 198 195 193 196 199 205 211 214
306 308 309 309 310 311 311 311 311 311 309 307 306 301 295 303 305 309 317 322 312 301 286 287 292 274 262 252 258 258 248 210 194 194 193 196 199 197 196 198 202 207 212 218
309 310 310 309 310 310 309 309 308 305 303 302 300 292 292 301 305 308 318 320 317 302 286 287 288 265 251 239 232 238 242 206 192 194 191 195 196 194 196 198 202 207 212 216
310 310 309 309 308 308 307 304 301 300 299 297 290 291 300 303 299 300 309 312 313 315 278 272 300 264 238 233 226 222 223 200 189 192 191 190 191 194 197 202 205 207 210 214
309 308 308 308 307 304 300 298 298 297 294 289 284 295 298 300 303 312 313 316 319 329 299 275 290 273 231 225 223 218 214 196 187 191 190 186 190 202 200 203 207 211 216 222
308 309 308 306 304 302 302 301 300 297 292 280 288 293 298 297 299 304 303 308 310 318 311 303 285 268 236 230 228 211 205 195 189 188 188 183 193 206 210 212 211 211 214 220
308 307 307 306 306 305 304 304 304 294 283 282 288 290 293 293 309 313 306 311 315 302 302 313 318 262 254 225 217 207 200 192 188 185 190 186 195 205 207 208 209 210 211 213